Menomonie, WI

11:04 AM CST on December 17, 2017 (GMT -0600)
Menomonie

Weather History for KLUM - February, 2014

Change the Weather History Date:

Thursday, February 13, 2014

  Actual Average (KEAU) Record (KEAU)
Temperature  
Mean Temperature 18 °F -  
Max Temperature 30 °F 27 °F 47 °F (1921)
Min Temperature 6 °F 7 °F -29 °F (1905)
Degree Days  
Heating Degree Days 47    
Moisture  
Dew Point 12 °F    
Average Humidity 79    
Maximum Humidity 88    
Minimum Humidity 71    
Precipitation  
Precipitation 0.00 in - - ()
Sea Level Pressure  
Sea Level Pressure 29.59 in    
Wind  
Wind Speed 10 mph (SSW)    
Max Wind Speed 21 mph    
Max Gust Speed 30 mph    
Visibility 7 miles    
Events Snow    
Averages and records for this station are not official NWS values.
T = Trace of Precipitation, MM = Missing Value Source: NWS Daily Summary

Daily Weather History Graph

Daily Weather History Graph

Search for Another Location

Airport or City:

Trip Planner

Search our weather history database for the weather conditions in past years. The results will help you decide how hot, cold, wet, or windy it might be!

Date:

Astronomy

Feb. 13, 2014 Rise Set
Actual Time 7:11 AM CST 5:32 PM CST
Civil Twilight 6:40 AM CST 6:03 PM CST
Nautical Twilight 6:06 AM CST 6:37 PM CST
Astronomical Twilight 5:32 AM CST 7:11 PM CST
Moon 4:41 PM CST (2/13) 6:05 AM CST (2/13)
Length of Visible Light 11h 22m
Length of Day
10h 21m
Waxing Gibbous, 99% of the Moon is Illuminated
Feb 13
Waxing Gibbous
Feb 14
Full
Feb 22
Last Quarter
Mar 1
New
Mar 8
First Quarter

Hourly Weather History & Observations

Time (CST) Temp. Windchill Dew Point Humidity Pressure Visibility Wind Dir Wind Speed Gust Speed Precip Events Conditions
12:15 AM 7.3 °F 0.5 °F 3.9 °F 86% 29.86 in 5.0 mi ESE 3.5 mph - N/A   Clear
12:35 AM 7.7 °F -2.4 °F 4.5 °F 87% 29.86 in 5.0 mi ESE 5.8 mph - N/A   Clear
12:55 AM 6.6 °F -6.1 °F 3.0 °F 85% 29.84 in 7.0 mi ESE 8.1 mph - N/A   Clear
1:15 AM 9.0 °F -0.9 °F 5.9 °F 87% 29.84 in 5.0 mi ESE 5.8 mph - N/A   Clear
1:35 AM 9.5 °F -4.4 °F 6.4 °F 87% 29.81 in 5.0 mi East 10.4 mph - N/A   Clear
1:55 AM 10.2 °F 0.6 °F 6.8 °F 86% 29.80 in 7.0 mi ESE 5.8 mph - N/A   Clear
2:15 AM 11.1 °F -0.6 °F 7.9 °F 87% 29.79 in 7.0 mi ESE 8.1 mph - N/A   Clear
2:35 AM 11.7 °F 0.0 °F 8.6 °F 88% 29.77 in 7.0 mi ESE 8.1 mph - N/A   Clear
2:55 AM 12.0 °F -1.3 °F 8.6 °F 86% 29.75 in 7.0 mi ESE 10.4 mph - N/A   Clear
3:15 AM 12.2 °F -1.0 °F 9.1 °F 88% 29.73 in 7.0 mi ESE 10.4 mph - N/A   Mostly Cloudy
3:35 AM 12.6 °F 3.4 °F 9.5 °F 88% 29.72 in 7.0 mi SE 5.8 mph - N/A   Overcast
3:55 AM 13.1 °F 0.1 °F 10.0 °F 88% 29.69 in 7.0 mi ESE 10.4 mph - N/A   Overcast
4:15 AM 13.6 °F 0.0 °F 10.4 °F 87% 29.68 in 7.0 mi SE 11.5 mph - N/A   Overcast
4:35 AM 13.8 °F 1.0 °F 10.4 °F 86% 29.68 in 1.8 mi SE 10.4 mph - N/A Snow Light Snow
4:55 AM 14.0 °F 1.2 °F 10.8 °F 87% 29.65 in 2.5 mi ESE 10.4 mph - N/A Snow Light Snow
5:15 AM 14.0 °F -0.2 °F 10.8 °F 87% 29.62 in 5.0 mi ESE 12.7 mph - N/A Snow Light Snow
5:35 AM 14.0 °F -1.4 °F 10.9 °F 88% 29.58 in 3.0 mi ESE 15.0 mph - N/A Snow Light Snow
5:55 AM 14.4 °F 0.2 °F 11.1 °F 87% 29.59 in 5.0 mi ESE 12.7 mph - N/A   Mostly Cloudy
6:15 AM 14.9 °F 2.3 °F 11.5 °F 86% 29.58 in 7.0 mi SE 10.4 mph - N/A   Mostly Cloudy
6:35 AM 15.6 °F 4.0 °F 11.8 °F 85% 29.57 in 7.0 mi ESE 9.2 mph - N/A   Overcast
6:55 AM 16.2 °F 5.5 °F 12.2 °F 84% 29.56 in 4.0 mi ESE 8.1 mph - N/A Snow Light Snow
7:15 AM 16.9 °F 4.8 °F 13.5 °F 86% 29.55 in 2.5 mi SE 10.4 mph - N/A Snow Light Snow
7:35 AM 17.4 °F 6.2 °F 14.0 °F 86% 29.53 in 3.0 mi SE 9.2 mph - N/A Snow Light Snow
7:55 AM 17.6 °F 7.3 °F 14.2 °F 86% 29.52 in 5.0 mi ESE 8.1 mph - N/A   Overcast
8:15 AM 18.1 °F 7.9 °F 14.5 °F 86% 29.51 in 5.0 mi SE 8.1 mph - N/A   Mostly Cloudy
8:35 AM 19.0 °F 9.0 °F 14.9 °F 84% 29.51 in 5.0 mi SE 8.1 mph - N/A   Overcast
8:55 AM 19.2 °F 11.3 °F 15.1 °F 84% 29.49 in 5.0 mi ESE 5.8 mph - N/A   Overcast
9:15 AM 20.3 °F 12.5 °F 16.2 °F 84% 29.48 in 5.0 mi ESE 5.8 mph - N/A   Overcast
9:35 AM 23.0 °F 14.7 °F 18.0 °F 81% 29.48 in 5.0 mi SSE 6.9 mph - N/A   Haze
9:55 AM 24.6 °F 15.1 °F 19.0 °F 79% 29.46 in 5.0 mi SSE 9.2 mph - N/A   Haze
10:15 AM 25.3 °F 14.1 °F 19.8 °F 79% 29.46 in 5.0 mi South 12.7 mph - N/A   Haze
10:35 AM 26.1 °F 15.0 °F 20.3 °F 79% 29.45 in 7.0 mi South 12.7 mph - N/A   Overcast
10:55 AM 26.6 °F 18.2 °F 20.7 °F 78% 29.45 in 7.0 mi South 8.1 mph - N/A   Overcast
11:15 AM 27.3 °F 20.9 °F 21.2 °F 78% 29.44 in 7.0 mi South 5.8 mph - N/A   Overcast
11:35 AM 28.2 °F 23.1 °F 21.7 °F 77% 29.43 in 7.0 mi South 4.6 mph - N/A   Overcast
11:55 AM 29.5 °F 22.5 °F 22.6 °F 76% 29.42 in 7.0 mi SSW 6.9 mph - N/A   Overcast
12:15 PM 30.6 °F 23.1 °F 23.0 °F 74% 29.41 in 7.0 mi SSW 8.1 mph - N/A   Overcast
12:35 PM 30.6 °F 19.0 °F 23.0 °F 74% 29.40 in 7.0 mi SW 17.3 mph 20.7 mph N/A   Overcast
12:55 PM 28.4 °F 15.1 °F 20.8 °F 73% 29.41 in 5.0 mi West 20.7 mph 29.9 mph N/A   Haze
1:35 PM 25.3 °F 11.8 °F 17.6 °F 72% 29.43 in 7.0 mi West 18.4 mph 24.2 mph N/A   Overcast
1:55 PM 24.4 °F 11.0 °F 16.9 °F 73% 29.43 in 7.0 mi West 17.3 mph 23.0 mph N/A   Overcast
2:15 PM 23.2 °F 8.6 °F 16.0 °F 74% 29.44 in 5.0 mi West 19.6 mph 25.3 mph N/A   Haze
2:35 PM 22.6 °F 9.2 °F 16.0 °F 76% 29.46 in 5.0 mi West 16.1 mph 19.6 mph N/A   Haze
2:55 PM 21.9 °F 7.3 °F 15.4 °F 76% 29.47 in 4.0 mi West 18.4 mph 27.6 mph N/A   Haze
3:15 PM 21.7 °F 8.0 °F 15.3 °F 76% 29.48 in 4.0 mi West 16.1 mph 26.5 mph N/A   Haze
3:35 PM 21.6 °F 6.9 °F 14.5 °F 74% 29.49 in 5.0 mi West 18.4 mph 21.9 mph N/A   Haze
3:55 PM 21.2 °F 9.5 °F 14.0 °F 74% 29.50 in 7.0 mi West 11.5 mph 23.0 mph N/A   Overcast
4:15 PM 21.2 °F 7.8 °F 13.8 °F 73% 29.52 in 7.0 mi West 15.0 mph 24.2 mph N/A   Overcast
4:35 PM 21.2 °F 6.8 °F 13.6 °F 73% 29.53 in 7.0 mi West 17.3 mph 23.0 mph N/A   Overcast
4:55 PM 21.6 °F 7.3 °F 14.0 °F 73% 29.53 in 5.0 mi West 17.3 mph 20.7 mph N/A Snow Light Snow
5:15 PM 21.9 °F 9.8 °F 14.7 °F 74% 29.54 in 7.0 mi West 12.7 mph - N/A Snow Light Snow
5:55 PM 22.1 °F 9.5 °F 15.4 °F 76% 29.58 in 7.0 mi West 13.8 mph 18.4 mph N/A Snow Light Snow
6:15 PM 21.6 °F 10.6 °F 14.9 °F 76% 29.58 in 7.0 mi West 10.4 mph 20.7 mph N/A Snow Light Snow
6:35 PM 20.1 °F 8.1 °F 14.0 °F 77% 29.59 in 7.0 mi West 11.5 mph - N/A Snow Light Snow
6:55 PM 19.4 °F 6.0 °F 13.5 °F 78% 29.60 in 10.0 mi West 13.8 mph 17.3 mph N/A   Mostly Cloudy
7:15 PM 18.9 °F 5.3 °F 12.4 °F 76% 29.61 in 10.0 mi West 13.8 mph 17.3 mph N/A Snow Light Snow
7:35 PM 18.1 °F 5.6 °F 11.3 °F 75% 29.62 in 10.0 mi West 11.5 mph - N/A   Scattered Clouds
7:55 PM 17.4 °F 1.9 °F 10.4 °F 74% 29.63 in 10.0 mi West 17.3 mph 20.7 mph N/A   Clear
8:15 PM 16.5 °F 3.0 °F 9.5 °F 74% 29.63 in 10.0 mi West 12.7 mph - N/A   Clear
8:35 PM 15.6 °F 1.8 °F 8.6 °F 74% 29.63 in 10.0 mi West 12.7 mph - N/A   Clear
8:55 PM 14.9 °F 1.6 °F 8.2 °F 75% 29.63 in 10.0 mi West 11.5 mph - N/A   Clear
9:15 PM 14.5 °F 0.5 °F 7.7 °F 74% 29.63 in 10.0 mi West 12.7 mph - N/A   Scattered Clouds
9:35 PM 14.9 °F 1.6 °F 7.7 °F 73% 29.64 in 10.0 mi West 11.5 mph - N/A   Mostly Cloudy
9:55 PM 14.9 °F 0.9 °F 7.3 °F 72% 29.65 in 10.0 mi West 12.7 mph - N/A   Mostly Cloudy
10:15 PM 14.5 °F -0.2 °F 6.8 °F 71% 29.65 in 10.0 mi West 13.8 mph - N/A   Mostly Cloudy
10:35 PM 13.6 °F -1.3 °F 5.9 °F 71% 29.66 in 10.0 mi West 13.8 mph - N/A   Scattered Clouds
10:55 PM 12.6 °F -2.0 °F 5.4 °F 73% 29.66 in 10.0 mi West 12.7 mph - N/A   Clear
11:15 PM 11.7 °F -3.2 °F 4.5 °F 73% 29.66 in 10.0 mi West 12.7 mph - N/A   Clear
11:35 PM 10.9 °F -4.7 °F 4.1 °F 74% 29.67 in 10.0 mi West 13.8 mph - N/A   Clear
11:55 PM 10.4 °F -3.3 °F 3.7 °F 74% 29.67 in 10.0 mi West 10.4 mph - N/A Snow Light Snow